Regional Weather Roundup
Issued by NWS

Home | Current Version | Previous Version | Text Only | Print | Product List | Glossary Off
Versions: 1 2 3 4 5 6 7 8 9 10 11 12 13 14 15 16 17 18 19 20 21 22 23 24 25 26 27 28 29 30 31 32 33 34 35 36 37 38 39 40 41 42 43 44 45 46 47 48 49 50

000
ASUS43 KIND 030309
RWRIN

WEATHER ROUNDUP FOR INDIANA
NATIONAL WEATHER SERVICE INDIANAPOLIS IN
1100 PM EDT SAT MAY 02 2015

NOTE: "FAIR" INDICATES FEW OR NO CLOUDS BELOW 12,000 FEET WITH NO
SIGNIFICANT WEATHER AND/OR OBSTRUCTIONS TO VISIBILITY.

* - STATION DOES NOT REPORT WEATHER SUCH AS PRECIPITATION OR FOG.

+ - STATION NOT QUALITY CONTROLLED BY THE NATIONAL WEATHER SERVICE.
    USE DATA WITH CAUTION...ESPECIALLY DEWPOINT AND RELATIVE
    HUMIDITY OBSERVATIONS.

INZ001>003-010>013-019-020-030400-
NORTHWEST INDIANA

CITY           SKY/WX    TMP DP  RH WIND       PRES   REMARKS
GARY /AIRPORT/ MOCLDY    64 N/A N/A VRB3      29.99R
KNOX *+        MOCLDY    59  18  20 S9        30.00S
LA PORTE +     PTCLDY    61  40  47 CALM      30.01S
MICHIGAN CITY+ MOCLDY    61  32  33 S3        30.00S
MONTICELLO +   MOCLDY    61  43  51 S6        30.02S
VALPARAISO     MOCLDY    63  37  38 S3        30.01R

$$

LMZ046-743>745-030400-
SOUTHERN LAKE MICHIGAN

STATION/POSITION TIME  TEMP    WIND        PRES    WAVE
                       AIR SEA DIR/SP/G            HT
                 (UTC) (F)     (DEG/KT/KT) (MB)    (FT)
BURNS HARBOR     0300   67     190/  9/ 10 1015.9S
MICHIGAN CITY    0300   69     170/ 10/ 12   N/A
5NW MICH CITY    0300   62 51  200/  6/  6   N/A     0

$$

INZ004-005-014>016-021>024-030400-
NORTH CENTRAL INDIANA

CITY           SKY/WX    TMP DP  RH WIND       PRES   REMARKS
GOSHEN         CLEAR     61  39  44 S7        30.01S
LOGANSPORT +   MOCLDY    55  39  54 S6        30.04S
PERU/GRISSOM   PTCLDY    58  45  62 S7        30.03S
ROCHESTER +    PTCLDY    64  39  39 S6        30.03S
SOUTH BEND     PTCLDY    60  39  45 CALM      30.01S
WARSAW +       PTCLDY    59  41  51 CALM      30.03S

$$

INZ006>009-017-018-025>027-030400-
NORTHEAST INDIANA

CITY           SKY/WX    TMP DP  RH WIND       PRES   REMARKS
ANGOLA *+      CLEAR     55  43  62 CALM      30.03S
AUBURN +       PTCLDY    59  36  41 CALM      30.04S
FORT WAYNE     PTCLDY    58  45  62 S6        30.04S
HUNTINGTON +   PTCLDY    55  46  73 S3        30.03S

$$

INZ028-029-035-036-043>045-051>053-030400-
WEST CENTRAL INDIANA

CITY           SKY/WX    TMP DP  RH WIND       PRES   REMARKS
GREENCASTLE +  MOCLDY    55  37  50 S3        30.06S
LAFAYETTE      CLOUDY    63  41  44 SW5       30.03S
TERRE HAUTE    MOCLDY    58  48  69 S3        30.05S

$$

INZ030>032-037>040-046>048-054>057-064-065-030400-
CENTRAL INDIANA

CITY           SKY/WX    TMP DP  RH WIND       PRES   REMARKS
CP ATTERBURY + PTCLDY    54  46  76 SW3       30.07S
FISHERS *+     PTCLDY    55  48  76 CALM      30.06
FRANKFORT +    MOCLDY    59  46  61 S5        30.06S
GREENWOOD *+   PTCLDY    59  45  58 CALM      30.07R
INDIANAPOLIS   MOCLDY    61  43  51 SW6       30.04S
-EAGLE CREEK   PTCLDY    64  43  46 SW3       30.05S
MARION +       MOCLDY    56  45  66 S3        30.05S
MT COMFORT *+  PTCLDY    57  36  44 SW3       30.07R
SHELBYVILLE    PTCLDY    63  45  51 SW5       30.05S
ZIONSVILLE +   PTCLDY    57  45  64 SW5       30.06S

$$

INZ033-034-041-042-049-050-058-059-030400-
EAST CENTRAL INDIANA

CITY           SKY/WX    TMP DP  RH WIND       PRES   REMARKS
MUNCIE         PTCLDY    58  45  62 S3        30.05S

$$

INZ060-061-067>069-081>083-085>088-030400-
SOUTHWEST INDIANA

CITY           SKY/WX    TMP DP  RH WIND       PRES   REMARKS
EVANSVILLE     PTCLDY    61  49  64 CALM      30.07R
HUNTINGBURG *+ MOCLDY    57  46  67 SE5       30.07S
WASHINGTON +   MOCLDY    56  46  70 S3        30.05F

$$

INZ062-063-066-070>080-084-089>092-030400-
SOUTH CENTRAL AND SOUTHEAST INDIANA

CITY           SKY/WX    TMP DP  RH WIND       PRES   REMARKS
BEDFORD +      PTCLDY    61  43  51 CALM      30.07S
BLOOMINGTON    MOCLDY    57  45  64 CALM      30.07R
MADISON *+     PTCLDY    55  45  67 CALM      30.10R
NORTH VERNON + PTCLDY    55  52  88 CALM      30.08S
SEYMOUR +      PTCLDY    61  46  59 CALM      30.07R

$$



USA.gov is the U.S. government's official web portal to all federal, state and local government web resources and services.